Location: Unspecified
(40.3167°N, 0.0000°E)
Time: 03:22:36
(UTC+00:00)

CZ-2C DEB - Visible Passes

Search period start: 04 April 2026 00:00
Search period end: 14 April 2026 00:00
Orbit: 666 x 837 km, 98.8° (Epoch: 29 March)

Date Brightness Start Highest point End Pass type
(mag) Time Alt. Az. Time Alt. Az. Time Alt. Az.
4 Apr ? 04:47:31 10° ENE 04:48:36 11° E 04:49:41 10° E visible
6 Apr ? 05:02:47 10° NE 05:05:47 16° E 05:08:42 10° SE visible
7 Apr ? 18:52:23 10° WSW 18:54:49 13° W 18:57:14 10° WNW visible
11 Apr ? 04:56:34 10° ENE 04:58:40 13° E 05:00:44 10° ESE visible
